Powrót do katalogu

DELTA 1 DEB

AktywnySSO
NORAD 10749·DEBRIS·🇺🇸 United States

Wystrzelony Jul 29, 1976 z Vandenberg Space Force Base

Loading…

Następne Przeloty (najbliższe 24 godziny)

TLE

ŚwieżeSource: Space-Track

Epoka: Sep 14, 2026, 11:41 UTC

1 10749U 76077AW  26257.48684023 -.00000024  00000-0  18735-3 0  9999
2 10749 102.3424 344.9658 0090860 206.2033 166.9008 12.23538062239519

Śledź DELTA 1 DEB w czasie rzeczywistym z AllMySat

Download on the App Store